Fullerton, CA

6:10 AM PST on February 25, 2017 (GMT -0800)
Fullerton Municipal

Weather History for KFUL - January, 2014

Change the Weather History Date:

Saturday, January 18, 2014

  Actual Average Record
Temperature  
Mean Temperature 65 °F 56 °F  
Max Temperature 84 °F 68 °F 84 °F (2014)
Min Temperature 45 °F 45 °F 35 °F (2007)
Degree Days  
Heating Degree Days 0 9  
Month to date heating degree days 66 162  
Since 1 July heating degree days 347 602  
Cooling Degree Days 0 0  
Month to date cooling degree days 13 0  
Year to date cooling degree days 13 0  
Growing Degree Days 14 (Base 50)    
Moisture  
Dew Point 28 °F    
Average Humidity 35    
Maximum Humidity 60    
Minimum Humidity 9    
Precipitation  
Precipitation 0.00 in 0.10 in 1.06 in (2010)
Month to date precipitation 0.00 1.93  
Year to date precipitation 0.00 1.93  
Since 1 July precipitation 1.31  
Snow  
Snow 0.00 in - - ()
Month to date snowfall 0.0  
Year to date snowfall 0.0  
Snow Depth 0.00 in    
Sea Level Pressure  
Sea Level Pressure 30.04 in    
Wind  
Wind Speed 1 mph (South)    
Max Wind Speed 8 mph    
Max Gust Speed 10 mph    
Visibility 10 miles    
Events      
T = Trace of Precipitation, MM = Missing Value Source: NWS Daily Summary

Daily Weather History Graph

Daily Weather History Graph

Search for Another Location

Airport or City:

Trip Planner

Search our weather history database for the weather conditions in past years. The results will help you decide how hot, cold, wet, or windy it might be!

Date:

Astronomy

Jan. 18, 2014 Rise Set
Actual Time 6:55 AM PST 5:09 PM PST
Civil Twilight 6:29 AM PST 5:36 PM PST
Nautical Twilight 5:58 AM PST 6:06 PM PST
Astronomical Twilight 5:28 AM PST 6:36 PM PST
Moon 7:45 PM PST (1/18) 8:06 AM PST (1/18)
Length of Visible Light 11h 07m
Length of Day
10h 13m
Waning Gibbous, 94% of the Moon is Illuminated
Jan 18
Waning Gibbous
Jan 23
Last Quarter
Jan 30
New
Feb 6
First Quarter
Feb 14
Full

Hourly Weather History & Observations

Time (PST) Temp. Dew Point Humidity Pressure Visibility Wind Dir Wind Speed Gust Speed Precip Events Conditions
12:53 AM 53.1 °F 30.0 °F 41% 30.04 in 10.0 mi Calm Calm - N/A   Clear
1:53 AM 51.1 °F 32.0 °F 48% 30.05 in 10.0 mi Calm Calm - N/A   Clear
2:53 AM 48.9 °F 32.0 °F 52% 30.04 in 10.0 mi Calm Calm - N/A   Clear
3:53 AM 48.0 °F 33.1 °F 56% 30.03 in 10.0 mi Calm Calm - N/A   Clear
4:53 AM 48.0 °F 33.1 °F 56% 30.03 in 10.0 mi Calm Calm - N/A   Clear
5:53 AM 46.0 °F 33.1 °F 61% 30.04 in 10.0 mi Calm Calm - N/A   Clear
6:53 AM 46.0 °F 32.0 °F 58% 30.05 in 10.0 mi Calm Calm - N/A   Clear
7:53 AM 50.0 °F 32.0 °F 50% 30.06 in 10.0 mi Calm Calm - N/A   Clear
8:53 AM 61.0 °F 27.0 °F 27% 30.08 in 10.0 mi Calm Calm - N/A   Clear
9:53 AM 69.1 °F 23.0 °F 18% 30.10 in 10.0 mi Variable 3.5 mph - N/A   Clear
10:53 AM 73.0 °F 19.0 °F 13% 30.09 in 10.0 mi Calm Calm - N/A   Clear
11:53 AM 77.0 °F 19.0 °F 11% 30.05 in 10.0 mi Calm Calm - N/A   Clear
12:53 PM 80.1 °F 18.0 °F 10% 30.01 in 10.0 mi Calm Calm - N/A   Clear
1:53 PM 82.9 °F 17.1 °F 9% 29.98 in 10.0 mi Variable 3.5 mph - N/A   Clear
2:53 PM 81.0 °F 23.0 °F 12% 29.97 in 10.0 mi SSW 8.1 mph - N/A   Clear
3:53 PM 77.0 °F 23.0 °F 13% 29.99 in 10.0 mi Calm Calm - N/A   Clear
4:53 PM 73.9 °F 21.9 °F 14% 30.01 in 10.0 mi South 4.6 mph - N/A   Clear
5:53 PM 68.0 °F 28.9 °F 23% 30.03 in 10.0 mi Calm Calm - N/A   Clear
6:53 PM 62.1 °F 32.0 °F 32% 30.03 in 10.0 mi Calm Calm - N/A   Clear
7:53 PM 59.0 °F 34.0 °F 39% 30.04 in 10.0 mi Calm Calm - N/A   Clear
8:53 PM 57.0 °F 34.0 °F 42% 30.04 in 10.0 mi Calm Calm - N/A   Clear
9:53 PM 55.0 °F 35.1 °F 47% 30.05 in 10.0 mi Calm Calm - N/A   Clear
10:53 PM 53.1 °F 35.1 °F 50% 30.05 in 10.0 mi Calm Calm - N/A   Clear
11:53 PM 53.1 °F 30.0 °F 41% 30.05 in 10.0 mi Calm Calm - N/A   Clear